Location: Grand Lay
(47.3253°N, 0.9468°E)
Time: 04:55:38
(UTC+00:00)

FengYun 1-2 T - Visible Passes

Search period start: 21 April 2026 00:00
Search period end: 01 May 2026 00:00
Orbit: 846 x 879 km, 98.8° (Epoch: 20 April)

Date Brightness Start Highest point End Pass type
(mag) Time Alt. Az. Time Alt. Az. Time Alt. Az.
21 Apr 6.3 03:39:36 10° NE 03:44:21 27° E 03:49:04 10° SSE visible
22 Apr 6.6 03:31:21 10° NE 03:35:48 23° E 03:40:12 10° SE visible
23 Apr 6.8 03:23:09 10° NE 03:27:14 20° E 03:31:16 10° SE visible
24 Apr 6.9 03:15:03 10° NE 03:18:39 17° E 03:22:14 10° SE visible
25 Apr 6.9 03:07:04 10° NE 03:10:04 14° E 03:13:03 10° ESE visible
26 Apr 7.1 02:59:20 10° ENE 03:01:28 12° E 03:03:35 10° ESE visible
30 Apr 5.6 04:03:59 10° NNE 04:09:21 42° E 04:14:38 10° SSE visible
